星链-32083 (STARLINK-32083)

导读

STARLINK-32083是美国SpaceX星链互联网卫星星座的一员,于2024年8月2日发射升空,承担低轨卫星互联网服务的组网任务。它运行在近地轨道,属于星链大规模部署批次中的卫星,将为全球用户提供高速互联网接入服务,尤其是覆盖偏远、网络基础设施匮乏的地区,助力SpaceX完成全球卫星互联网组网布局。

基本信息
目录编号:
60343
目录名称:
STARLINK-32083
国际标识:
2024-136Q
轨道中心:
EARTH
卫星名称:
星链-32083 (STARLINK-32083)
卫星全名:
星链-32083 (STARLINK-32083)
卫星状态:
在轨 (已飞行685 天)
发射日期:
2024-08-02 UTC
国别 :
美国 (US)
星等 :
--
轨道信息
数据来源 国际轨道数据
星历时间: 2026-06-18T01:49:04+0800
6小时前
查看轨道信息
半长轴: 6853.355km
偏心率: 0.0001095
轨道倾角: 53.162°
近地点辐角 87.197°
升交点赤经 330.855°
平近点角 272.916°
近地点: 474.467km
远地点: 475.969km
周期: 94.105分钟
每日圈数: 15.301991
详细信息
卫星平台:
Starlink v2.0 mini
运营商:
太空探索技术公司
运营商所在国:
美国
制造商(研发单位):
太空探索技术公司
制造商所在国:
美国
使用方式:
暂无
卫星简介
星链(Starlink)计划是由太空探索技术公司(SpaceX)提出的一个巨型低轨卫星互联网星座项目,计划在2019年至2024年间在太空搭建由约1.2万颗卫星组成的“星链”网络,其中1584颗将部署在地球上空550千米处的近地轨道,并从2020年开始工作。该卫星仍在工作。
2D轨道图
3D轨道图
轨道高度分析图
轨道倾角分析图
轨道综合分析图
查看轨道综合分析图